QPF
0.01 0.01 0.01 0.00 0.00 0.00 0.00 0.00 0.00 0.00 0.00 0.00 0.00 0.00 0.00 0.00 0.00 0.00 0.00 0.00 0.00 0.00 0.00 0.00 0.00 0.00 0.00 0.00 0.00 0.00 0.00 0.00 0.00 0.00 0.01 0.03 0.00 0.00 0.00 0.00 0.00 0.00 0.00
0.01 0.01 0.00 0.00 0.00 0.00 0.00 0.00 0.00 0.00 0.00 0.00 0.00 0.00 0.00 0.00 0.00 0.00 0.00 0.00 0.00 0.00 0.00 0.00 0.00 0.00 0.00 0.00 0.00 0.00 0.00 0.00 0.00 0.00 0.00 0.00 0.00 0.00 0.00 0.00 0.00 0.00 0.00
0.01 0.01 0.00 0.00 0.00 0.00 0.00 0.00 0.00 0.00 0.00 0.00 0.00 0.00 0.00 0.00 0.00 0.00 0.00 0.00 0.00 0.00 0.00 0.00 0.00 0.00 0.00 0.00 0.00 0.00 0.00 0.00 0.00 0.00 0.00 0.00 0.00 0.00 0.00 0.00 0.00 0.00 0.01
0.01 0.01 0.01 0.00 0.00 0.00 0.00 0.00 0.00 0.00 0.00 0.00 0.00 0.00 0.00 0.00 0.00 0.00 0.00 0.00 0.00 0.01 0.01 0.01 0.00 0.00 0.00 0.00 0.00 0.00 0.00 0.00 0.00 0.00 0.00 0.00 0.00 0.05 0.09 0.05 0.03 0.00 0.00
0.01 0.01 0.00 0.00 0.00 0.00 0.00 0.00 0.00 0.00 0.00 0.00 0.00 0.00 0.00 0.00 0.00 0.00 0.00 0.00 0.00 0.00 0.00 0.00 0.00 0.00 0.00 0.00 0.00 0.00 0.00 0.00 0.00 0.00 0.00 0.00 0.00 0.04 0.15 0.04 0.01 0.02 0.00
0.00 0.00 0.00 0.00 0.00 0.00 0.00 0.00 0.00 0.00 0.00 0.00 0.00 0.00 0.00 0.00 0.00 0.00 0.00 0.00 0.00 0.00 0.00 0.00 0.00 0.00 0.00 0.00 0.00 0.00 0.00 0.00 0.00 0.00 0.00 0.01 0.03 0.02 0.01 0.00 0.00 0.01 0.01
0.00 0.00 0.00 0.00 0.00 0.01 0.00 0.00 0.00 0.00 0.00 0.00 0.00 0.00 0.00 0.00 0.00 0.00 0.00 0.00 0.00 0.00 0.00 0.00 0.00 0.00 0.00 0.00 0.00 0.00 0.00 0.00 0.00 0.00 0.00 0.00 0.00 0.05 0.06 0.00 0.00 0.00 0.02
0.01 0.01 0.00 0.01 0.01 0.00 0.00 0.00 0.00 0.00 0.00 0.00 0.00 0.00 0.00 0.00 0.00 0.00 0.00 0.00 0.00 0.00 0.00 0.00 0.00 0.00 0.00 0.00 0.00 0.00 0.00 0.00 0.00 0.00 0.00 0.00 0.00 0.01 0.06 0.04 0.01 0.00 0.00
0.01 0.01 0.00 0.00 0.00 0.00 0.00 0.00 0.00 0.00 0.00 0.00 0.00 0.00 0.00 0.00 0.00 0.00 0.00 0.00 0.00 0.00 0.00 0.00 0.00 0.00 0.00 0.00 0.00 0.00 0.00 0.00 0.00 0.00 0.00 0.00 0.00 0.00 0.01 0.01 0.01 0.01 0.01
0.01 0.00 0.00 0.00 0.00 0.00 0.00 0.00 0.00 0.00 0.00 0.00 0.00 0.00 0.00 0.00 0.00 0.00 0.00 0.00 0.00 0.00 0.00 0.00 0.00 0.00 0.00 0.00 0.00 0.00 0.00 0.00 0.00 0.00 0.00 0.00 0.00 0.00 0.00 0.01 0.01 0.02 0.02
0.01 0.01 0.00 0.00 0.00 0.00 0.00 0.00 0.00 0.00 0.00 0.00 0.00 0.00 0.00 0.00 0.00 0.00 0.00 0.00 0.00 0.00 0.00 0.00 0.00 0.00 0.00 0.00 0.00 0.00 0.00 0.00 0.00 0.00 0.00 0.00 0.00 0.01 0.01 0.00 0.00 0.01 0.02
0.01 0.01 0.00 0.00 0.00 0.00 0.00 0.00 0.00 0.00 0.00 0.00 0.00 0.00 0.00 0.00 0.00 0.00 0.00 0.00 0.00 0.00 0.00 0.00 0.00 0.00 0.00 0.00 0.00 0.00 0.00 0.00 0.00 0.00 0.00 0.00 0.00 0.01 0.01 0.01 0.01 0.00 0.01
0.00 0.00 0.00 0.00 0.00 0.00 0.00 0.00 0.00 0.00 0.00 0.00 0.00 0.00 0.00 0.00 0.00 0.00 0.00 0.00 0.00 0.00 0.00 0.00 0.00 0.00 0.00 0.00 0.00 0.00 0.00 0.00 0.00 0.00 0.00 0.00 0.00 0.01 0.01 0.02 0.01 0.00 0.00
0.00 0.00 0.00 0.00 0.00 0.00 0.00 0.00 0.00 0.00 0.00 0.00 0.00 0.00 0.00 0.00 0.00 0.00 0.00 0.00 0.00 0.00 0.00 0.00 0.00 0.00 0.00 0.00 0.00 0.00 0.00 0.00 0.00 0.00 0.00 0.00 0.00 0.00 0.00 0.01 0.02 0.01 0.00
0.00 0.00 0.00 0.00 0.00 0.00 0.00 0.00 0.00 0.00 0.00 0.00 0.00 0.00 0.00 0.00 0.00 0.00 0.00 0.00 0.00 0.00 0.00 0.00 0.00 0.00 0.00 0.00 0.00 0.00 0.00 0.00 0.00 0.00 0.00 0.00 0.00 0.00 0.00 0.00 0.02 0.04 0.01
0.00 0.00 0.00 0.00 0.00 0.00 0.00 0.00 0.00 0.00 0.00 0.00 0.00 0.00 0.00 0.00 0.00 0.00 0.00 0.00 0.00 0.00 0.00 0.00 0.00 0.00 0.00 0.00 0.00 0.00 0.00 0.00 0.00 0.00 0.00 0.00 0.00 0.00 0.00 0.00 0.00 0.02 0.01
0.00 0.00 0.00 0.00 0.00 0.00 0.00 0.00 0.00 0.00 0.00 0.00 0.00 0.00 0.00 0.00 0.00 0.00 0.00 0.00 0.00 0.00 0.00 0.00 0.00 0.00 0.00 0.00 0.00 0.00 0.00 0.00 0.00 0.00 0.00 0.00 0.00 0.00 0.00 0.00 0.00 0.00 0.00
0.00 0.00 0.00 0.00 0.00 0.00 0.00 0.00 0.00 0.00 0.00 0.00 0.00 0.00 0.00 0.00 0.00 0.00 0.00 0.00 0.00 0.00 0.00 0.00 0.00 0.00 0.00 0.00 0.00 0.00 0.00 0.00 0.00 0.00 0.00 0.00 0.00 0.00 0.00 0.00 0.00 0.00 0.00
0.00 0.00 0.00 0.00 0.00 0.00 0.00 0.00 0.00 0.00 0.00 0.00 0.00 0.00 0.00 0.00 0.00 0.00 0.00 0.00 0.00 0.00 0.00 0.00 0.00 0.00 0.00 0.00 0.00 0.00 0.00 0.00 0.00 0.00 0.00 0.00 0.00 0.00 0.00 0.00 0.00 0.00 0.00
0.00 0.00 0.00 0.00 0.00 0.00 0.00 0.00 0.00 0.00 0.00 0.00 0.00 0.00 0.00 0.00 0.00 0.00 0.00 0.00 0.00 0.00 0.00 0.00 0.00 0.00 0.00 0.00 0.00 0.00 0.00 0.00 0.00 0.00 0.00 0.00 0.00 0.00 0.00 0.00 0.00 0.00 0.00
0.00 0.00 0.00 0.00 0.00 0.00 0.00 0.00 0.00 0.00 0.00 0.00 0.00 0.00 0.00 0.00 0.00 0.00 0.00 0.00 0.00 0.00 0.00 0.00 0.00 0.00 0.00 0.00 0.00 0.00 0.00 0.00 0.00 0.00 0.00 0.00 0.00 0.00 0.00 0.00 0.00 0.00 0.00
0.00 0.00 0.00 0.00 0.00 0.00 0.00 0.00 0.00 0.00 0.00 0.00 0.00 0.00 0.00 0.00 0.00 0.00 0.00 0.00 0.00 0.00 0.00 0.00 0.00 0.00 0.00 0.00 0.00 0.00 0.00 0.00 0.00 0.00 0.00 0.00 0.00 0.00 0.00 0.00 0.00 0.00 0.00
0.00 0.00 0.00 0.00 0.00 0.00 0.00 0.00 0.00 0.00 0.00 0.00 0.00 0.00 0.00 0.00 0.00 0.00 0.00 0.00 0.00 0.00 0.00 0.00 0.00 0.00 0.00 0.00 0.00 0.00 0.00 0.00 0.00 0.00 0.00 0.00 0.00 0.00 0.00 0.00 0.00 0.00 0.00
0.00 0.00 0.00 0.00 0.00 0.00 0.00 0.00 0.00 0.00 0.00 0.00 0.00 0.00 0.00 0.00 0.00 0.00 0.00 0.00 0.00 0.00 0.00 0.00 0.00 0.00 0.00 0.00 0.00 0.00 0.00 0.00 0.00 0.00 0.00 0.00 0.00 0.00 0.00 0.00 0.00 0.00 0.00
0.00 0.00 0.00 0.00 0.00 0.00 0.00 0.00 0.00 0.00 0.00 0.00 0.00 0.00 0.00 0.00 0.00 0.00 0.00 0.00 0.00 0.00 0.00 0.00 0.00 0.00 0.00 0.00 0.00 0.00 0.00 0.00 0.00 0.00 0.00 0.00 0.00 0.00 0.00 0.00 0.00 0.00 0.00
0.00 0.00 0.00 0.00 0.00 0.00 0.00 0.00 0.00 0.00 0.00 0.00 0.00 0.00 0.00 0.00 0.00 0.00 0.00 0.00 0.00 0.00 0.00 0.00 0.00 0.00 0.00 0.00 0.00 0.00 0.00 0.00 0.00 0.00 0.00 0.00 0.00 0.00 0.00 0.00 0.00 0.00 0.00
MSLP
1018.81 1018.89 1019.12 1019.41 1019.54 1019.58 1019.74 1019.70 1019.81 1019.91 1019.97 1019.98 1020.08 1020.22 1020.21 1020.17 1020.14 1020.17 1020.07 1020.12 1020.11 1020.07 1019.97 1019.95 1019.97 1019.99 1019.98 1019.89 1019.90 1019.84 1019.86 1019.79 1019.70 1019.65 1019.69 1019.63 1019.73 1019.85 1019.87 1019.90 1019.79 1019.68 1019.78
1018.61 1019.13 1019.43 1019.58 1019.66 1019.72 1019.71 1019.77 1020.04 1020.17 1020.25 1020.41 1020.38 1020.43 1020.57 1020.57 1020.54 1020.41 1020.38 1020.39 1020.43 1020.43 1020.41 1020.42 1020.34 1020.33 1020.34 1020.24 1020.24 1020.17 1020.08 1020.03 1019.97 1019.99 1019.99 1019.96 1019.96 1020.00 1020.20 1020.36 1020.22 1020.12 1020.27
1018.92 1019.36 1019.63 1019.86 1020.02 1020.16 1020.25 1020.24 1020.24 1020.42 1020.58 1020.55 1020.73 1020.76 1020.83 1020.92 1020.95 1020.89 1020.77 1020.65 1020.65 1020.69 1020.71 1020.68 1020.71 1020.69 1020.68 1020.51 1020.50 1020.39 1020.14 1020.16 1020.27 1020.37 1020.40 1020.50 1020.51 1020.48 1020.57 1020.61 1020.55 1020.62 1020.62
1019.26 1019.67 1019.92 1020.17 1020.09 1020.04 1020.24 1020.53 1020.76 1020.69 1020.80 1020.92 1020.99 1021.07 1021.17 1021.31 1021.37 1021.43 1021.37 1021.20 1021.06 1021.07 1021.00 1021.03 1021.02 1021.05 1021.05 1020.98 1020.86 1020.76 1020.67 1020.58 1020.75 1020.87 1020.88 1020.87 1020.82 1020.80 1020.87 1020.88 1020.82 1020.87 1020.87
1019.60 1019.99 1020.08 1020.29 1020.33 1020.47 1020.50 1020.82 1021.07 1021.30 1021.13 1021.37 1021.39 1021.54 1021.56 1021.61 1021.69 1021.70 1021.68 1021.69 1021.51 1021.49 1021.42 1021.43 1021.36 1021.41 1021.40 1021.35 1021.31 1021.35 1021.32 1021.33 1021.37 1021.44 1021.44 1021.30 1021.17 1021.11 1021.27 1021.19 1021.14 1021.08 1021.08
1019.99 1020.47 1020.64 1020.78 1020.81 1020.82 1020.95 1021.14 1021.23 1021.79 1021.63 1021.77 1021.89 1021.89 1021.92 1021.90 1022.06 1022.10 1021.97 1021.91 1021.92 1021.97 1021.93 1021.85 1021.84 1021.86 1021.69 1021.71 1021.79 1021.82 1021.83 1021.89 1021.94 1022.02 1021.99 1021.81 1021.58 1021.42 1021.57 1021.54 1021.57 1021.48 1021.40
1020.37 1020.81 1021.05 1021.13 1021.19 1021.35 1021.67 1021.96 1021.70 1022.03 1022.21 1022.20 1022.34 1022.40 1022.39 1022.33 1022.28 1022.58 1022.47 1022.51 1022.28 1022.22 1022.21 1022.23 1022.19 1022.24 1022.20 1022.09 1022.20 1022.29 1022.31 1022.38 1022.45 1022.47 1022.43 1022.31 1022.04 1021.90 1021.88 1021.95 1021.96 1021.96 1021.74
1020.74 1021.10 1021.37 1021.55 1021.65 1021.85 1022.05 1022.55 1022.30 1022.46 1022.65 1022.73 1022.99 1023.12 1023.08 1023.11 1022.55 1023.00 1022.93 1022.89 1022.77 1022.59 1022.58 1022.59 1022.54 1022.58 1022.57 1022.69 1022.65 1022.72 1022.81 1022.75 1022.80 1022.78 1022.79 1022.71 1022.52 1022.33 1022.32 1022.35 1022.44 1022.35 1022.16
1021.36 1021.59 1021.92 1022.15 1022.23 1022.50 1022.75 1022.96 1023.06 1023.20 1023.35 1023.39 1023.40 1023.42 1023.49 1023.48 1023.24 1023.35 1023.28 1023.31 1023.06 1022.97 1023.10 1023.00 1022.90 1023.08 1023.11 1023.13 1023.15 1023.09 1023.11 1023.18 1023.21 1023.37 1023.15 1023.12 1022.94 1022.89 1022.78 1022.73 1022.79 1022.69 1022.46
1021.86 1022.11 1022.39 1022.62 1022.81 1022.89 1023.06 1023.21 1023.28 1023.62 1023.88 1023.85 1023.86 1023.97 1024.09 1023.94 1023.82 1023.77 1023.94 1023.84 1023.41 1023.30 1023.52 1023.50 1023.46 1023.56 1023.60 1023.56 1023.62 1023.74 1023.65 1023.69 1023.86 1023.90 1023.75 1023.63 1023.46 1023.40 1023.52 1023.48 1023.49 1023.31 1023.00
1022.41 1022.57 1022.90 1023.12 1023.42 1023.66 1023.72 1023.78 1023.96 1023.95 1024.23 1024.41 1024.43 1024.47 1024.46 1024.65 1024.70 1024.56 1024.56 1024.23 1024.03 1024.01 1023.90 1024.00 1024.04 1024.14 1024.20 1024.25 1024.30 1024.32 1024.28 1024.48 1024.48 1024.55 1024.47 1024.34 1024.10 1024.11 1024.21 1024.19 1024.18 1024.05 1023.94
1022.80 1023.12 1023.30 1023.62 1023.81 1024.03 1024.21 1024.40 1024.45 1024.65 1024.77 1025.07 1025.19 1025.10 1025.33 1025.21 1025.21 1025.14 1025.13 1024.89 1024.68 1024.62 1024.62 1024.70 1024.77 1024.79 1024.97 1025.07 1025.07 1025.04 1025.19 1025.27 1025.21 1025.18 1024.99 1024.83 1024.79 1024.79 1024.75 1024.85 1024.85 1024.78 1024.74
1023.01 1023.29 1023.53 1023.82 1024.33 1024.58 1024.68 1024.99 1025.13 1025.10 1025.16 1025.46 1025.62 1025.74 1025.76 1025.65 1025.84 1025.84 1025.72 1025.80 1025.62 1025.57 1025.57 1025.52 1025.64 1025.69 1025.70 1025.68 1025.79 1025.98 1026.02 1026.02 1026.12 1026.03 1025.71 1025.48 1025.26 1025.31 1025.34 1025.31 1025.33 1025.46 1025.42
1023.21 1023.60 1023.93 1024.21 1024.60 1024.83 1024.98 1025.26 1025.43 1025.77 1025.81 1025.99 1026.34 1026.48 1026.49 1026.41 1026.38 1026.43 1026.48 1026.33 1026.25 1026.26 1026.18 1026.26 1026.32 1026.31 1026.27 1026.24 1026.36 1026.61 1026.78 1026.88 1026.82 1026.80 1026.69 1026.41 1026.10 1025.90 1025.87 1025.70 1025.82 1025.86 1026.09
1023.36 1023.80 1024.15 1024.42 1024.95 1025.02 1025.26 1025.58 1025.76 1026.14 1026.35 1025.95 1026.20 1026.67 1026.87 1027.03 1027.03 1027.07 1027.18 1026.91 1026.91 1026.73 1026.68 1026.72 1026.86 1026.88 1026.82 1026.83 1026.98 1027.10 1027.39 1027.64 1027.71 1027.80 1027.62 1027.26 1027.06 1026.86 1026.55 1026.34 1026.53 1026.48 1026.62
1023.49 1023.95 1024.36 1024.69 1025.00 1025.29 1025.57 1025.89 1026.16 1026.42 1026.90 1026.74 1026.57 1026.50 1026.82 1027.15 1027.24 1027.34 1027.55 1027.58 1027.41 1027.30 1027.42 1027.45 1027.47 1027.45 1027.63 1027.54 1027.79 1028.04 1028.33 1028.46 1028.48 1028.49 1028.49 1028.26 1027.87 1027.56 1027.25 1027.18 1027.19 1027.00 1027.11
1023.41 1023.84 1024.25 1024.73 1025.03 1025.30 1025.66 1026.10 1026.44 1026.74 1027.31 1027.50 1027.32 1027.01 1026.79 1026.92 1027.18 1027.51 1027.86 1027.99 1027.85 1027.74 1027.64 1027.68 1027.89 1027.96 1028.00 1028.11 1028.51 1028.77 1028.93 1029.18 1029.23 1029.35 1029.36 1029.23 1028.98 1028.52 1028.14 1028.13 1028.11 1028.03 1027.93
1023.41 1023.87 1024.25 1024.38 1025.15 1025.59 1025.94 1026.32 1026.47 1026.97 1027.57 1027.90 1027.73 1027.46 1027.34 1027.30 1027.60 1027.93 1028.12 1028.35 1028.25 1027.98 1028.06 1028.17 1028.52 1028.56 1028.84 1029.11 1029.52 1029.82 1029.83 1029.83 1029.98 1029.97 1029.95 1029.98 1029.88 1029.66 1029.28 1029.02 1028.95 1028.95 1028.90
1023.33 1023.88 1024.40 1024.80 1025.35 1025.80 1026.25 1026.66 1026.93 1027.22 1027.64 1027.93 1027.96 1028.08 1027.85 1027.61 1027.85 1028.11 1028.41 1028.77 1028.66 1028.74 1028.84 1028.86 1029.27 1029.20 1029.69 1030.15 1030.58 1030.83 1031.01 1031.01 1031.05 1030.91 1030.83 1030.65 1030.59 1030.48 1030.35 1030.03 1029.84 1029.76 1029.75
1023.49 1023.92 1024.43 1025.02 1025.50 1026.01 1026.57 1027.01 1027.16 1027.64 1027.67 1028.16 1028.26 1028.17 1028.34 1028.19 1028.23 1028.52 1028.96 1029.11 1029.01 1029.29 1029.49 1029.49 1029.87 1030.22 1030.50 1030.75 1031.19 1031.61 1031.91 1032.03 1031.98 1031.87 1031.74 1031.40 1031.30 1031.25 1031.15 1031.07 1031.07 1030.85 1030.57
1023.64 1024.11 1024.51 1024.91 1025.62 1026.11 1026.61 1027.08 1027.40 1027.57 1028.03 1028.34 1028.57 1028.60 1028.55 1028.49 1028.45 1028.73 1029.22 1029.57 1029.53 1029.62 1030.00 1029.90 1030.30 1030.86 1031.45 1031.70 1031.69 1032.36 1032.64 1032.64 1032.65 1032.70 1032.52 1032.41 1032.19 1032.08 1031.93 1031.86 1031.79 1031.78 1031.62
1023.37 1023.83 1024.38 1024.81 1025.40 1025.90 1026.31 1026.68 1026.87 1027.54 1028.19 1028.28 1028.53 1028.72 1028.62 1028.69 1028.84 1029.10 1029.43 1029.84 1029.88 1029.94 1030.22 1030.36 1030.40 1031.22 1031.79 1031.95 1032.05 1032.47 1033.06 1033.31 1033.30 1033.35 1033.19 1032.96 1033.11 1032.77 1032.59 1032.52 1032.39 1032.29 1032.24
1023.05 1023.57 1024.15 1024.60 1025.06 1025.54 1026.00 1026.68 1027.18 1027.66 1028.07 1028.65 1028.73 1029.03 1028.85 1028.78 1028.97 1029.21 1029.50 1029.83 1030.10 1030.19 1030.59 1030.75 1030.82 1031.08 1031.88 1032.37 1032.16 1032.21 1032.97 1033.11 1033.46 1033.69 1033.76 1033.69 1033.55 1033.41 1033.29 1033.08 1032.91 1032.82 1032.71
1022.32 1022.93 1023.59 1024.10 1024.54 1025.16 1025.69 1026.20 1026.62 1026.96 1027.40 1027.78 1028.54 1028.81 1028.99 1028.94 1029.26 1029.15 1029.44 1029.96 1030.20 1030.37 1030.77 1030.79 1031.01 1031.26 1031.57 1032.19 1032.40 1032.46 1032.52 1032.72 1033.16 1033.82 1033.84 1033.93 1033.84 1033.64 1033.72 1033.54 1033.41 1033.33 1033.22
1021.39 1022.17 1022.94 1023.57 1024.13 1024.70 1025.13 1025.54 1026.24 1026.93 1027.11 1027.63 1028.10 1028.90 1029.14 1029.15 1029.26 1029.39 1029.64 1030.07 1030.27 1030.46 1030.83 1030.95 1031.16 1031.35 1031.70 1032.25 1032.49 1032.87 1033.11 1033.40 1033.48 1033.50 1033.83 1033.95 1033.85 1033.89 1033.88 1033.86 1033.74 1033.69 1033.69
1021.08 1021.69 1022.27 1022.99 1023.44 1024.01 1024.70 1025.13 1025.65 1026.24 1026.69 1027.42 1028.05 1028.70 1029.16 1029.29 1029.45 1029.69 1029.92 1030.14 1030.28 1030.59 1030.99 1031.22 1031.40 1031.62 1032.06 1032.23 1032.50 1032.51 1032.80 1033.20 1033.65 1033.75 1033.91 1034.10 1034.16 1033.95 1033.95 1034.02 1034.02 1033.94 1033.96
Thickness
5705 5702 5697 5691 5688 5687 5683 5684 5683 5682 5681 5680 5680 5679 5679 5679 5680 5680 5681 5680 5680 5680 5681 5683 5683 5684 5685 5685 5683 5683 5682 5683 5683 5684 5683 5683 5681 5679 5678 5677 5679 5680 5679
5707 5700 5694 5691 5688 5686 5685 5684 5680 5678 5677 5675 5675 5676 5675 5675 5675 5676 5677 5676 5676 5677 5677 5678 5680 5680 5679 5680 5680 5679 5681 5681 5680 5678 5679 5679 5679 5679 5676 5674 5675 5675 5674
5704 5699 5693 5689 5685 5682 5680 5679 5678 5676 5674 5673 5671 5671 5671 5671 5671 5671 5672 5673 5672 5672 5673 5674 5675 5675 5675 5677 5676 5676 5678 5678 5676 5674 5673 5672 5671 5671 5671 5671 5672 5671 5670
5701 5696 5690 5684 5684 5683 5680 5675 5673 5672 5671 5670 5669 5668 5667 5666 5666 5665 5665 5666 5667 5667 5668 5669 5670 5671 5671 5671 5672 5672 5672 5672 5670 5668 5668 5667 5665 5666 5665 5665 5665 5665 5665
5696 5691 5687 5683 5682 5679 5678 5674 5670 5667 5667 5665 5664 5663 5662 5661 5661 5661 5660 5660 5661 5661 5661 5661 5664 5665 5666 5666 5666 5666 5665 5664 5663 5662 5662 5661 5661 5660 5659 5660 5660 5661 5660
5692 5685 5681 5678 5676 5675 5673 5670 5669 5662 5663 5661 5659 5658 5657 5657 5656 5655 5656 5657 5657 5655 5653 5653 5655 5657 5660 5660 5660 5659 5659 5658 5657 5655 5654 5654 5654 5653 5653 5654 5653 5654 5654
5688 5682 5678 5674 5672 5668 5664 5661 5663 5660 5658 5657 5655 5653 5652 5652 5652 5649 5650 5649 5651 5650 5649 5649 5650 5650 5652 5654 5653 5652 5651 5649 5648 5647 5646 5645 5646 5645 5645 5645 5645 5645 5646
5684 5679 5673 5669 5667 5664 5660 5656 5657 5655 5653 5652 5648 5645 5645 5643 5647 5644 5645 5645 5645 5646 5646 5646 5647 5646 5647 5646 5646 5644 5643 5642 5640 5638 5637 5637 5636 5637 5637 5638 5637 5638 5638
5679 5675 5669 5664 5663 5660 5656 5652 5650 5648 5646 5645 5644 5643 5641 5640 5641 5639 5641 5640 5642 5642 5641 5642 5643 5641 5640 5640 5639 5638 5637 5635 5634 5630 5630 5629 5629 5627 5628 5629 5629 5629 5631
5674 5671 5666 5662 5660 5658 5656 5651 5649 5644 5641 5641 5640 5638 5637 5637 5638 5638 5635 5636 5639 5639 5637 5637 5637 5636 5635 5635 5633 5631 5631 5629 5626 5623 5621 5620 5620 5620 5618 5619 5619 5620 5622
5670 5666 5662 5659 5654 5651 5648 5645 5643 5641 5637 5635 5634 5634 5635 5634 5632 5630 5629 5632 5634 5634 5634 5632 5631 5630 5628 5627 5625 5623 5623 5619 5616 5613 5610 5609 5610 5609 5606 5607 5607 5608 5609
5665 5661 5658 5654 5651 5647 5643 5640 5639 5635 5633 5629 5627 5628 5626 5628 5628 5627 5626 5628 5629 5629 5628 5627 5626 5625 5622 5620 5618 5615 5611 5607 5605 5603 5601 5600 5598 5598 5597 5596 5595 5595 5596
5663 5659 5655 5651 5645 5642 5640 5635 5631 5632 5630 5626 5623 5622 5623 5625 5624 5624 5624 5622 5622 5621 5621 5621 5619 5616 5614 5611 5609 5604 5600 5598 5594 5591 5589 5589 5589 5588 5587 5586 5586 5583 5584
5660 5656 5651 5647 5643 5639 5636 5632 5627 5623 5622 5621 5615 5615 5616 5619 5619 5618 5616 5618 5617 5616 5615 5614 5612 5610 5608 5605 5600 5594 5590 5586 5584 5581 5577 5576 5576 5576 5576 5576 5575 5575 5572
5658 5653 5648 5644 5640 5638 5634 5629 5625 5621 5617 5621 5619 5612 5611 5611 5613 5612 5611 5612 5612 5612 5612 5610 5605 5602 5600 5597 5591 5587 5582 5577 5574 5570 5566 5565 5565 5564 5565 5566 5563 5565 5562
5656 5651 5646 5642 5639 5635 5630 5626 5623 5618 5614 5614 5616 5616 5611 5610 5610 5609 5607 5606 5607 5606 5604 5601 5599 5595 5590 5587 5582 5578 5572 5568 5565 5561 5558 5556 5554 5553 5553 5552 5551 5554 5553
5656 5650 5645 5641 5636 5633 5628 5623 5619 5616 5610 5608 5609 5612 5613 5611 5609 5607 5605 5602 5601 5600 5599 5595 5592 5588 5584 5579 5574 5569 5564 5560 5556 5552 5548 5546 5544 5543 5541 5539 5537 5538 5540
5653 5649 5644 5640 5635 5630 5626 5621 5618 5613 5608 5605 5605 5606 5608 5608 5604 5602 5600 5597 5594 5595 5593 5590 5584 5580 5575 5569 5564 5559 5555 5551 5546 5544 5541 5537 5533 5531 5529 5527 5526 5524 5525
5652 5647 5641 5637 5633 5627 5622 5618 5613 5610 5607 5604 5602 5600 5602 5604 5601 5598 5595 5590 5588 5586 5584 5580 5574 5572 5565 5557 5551 5545 5541 5537 5533 5530 5527 5526 5524 5521 5519 5515 5513 5512 5511
5648 5644 5638 5632 5628 5623 5617 5613 5611 5605 5605 5600 5598 5598 5595 5596 5595 5592 5587 5584 5583 5578 5574 5572 5565 5559 5554 5548 5542 5534 5528 5523 5519 5517 5516 5514 5511 5509 5507 5505 5502 5500 5498
5642 5638 5635 5631 5624 5618 5614 5609 5606 5604 5599 5596 5593 5591 5591 5591 5589 5586 5580 5576 5574 5572 5566 5564 5558 5550 5542 5537 5533 5523 5516 5512 5508 5504 5502 5500 5498 5495 5493 5492 5490 5488 5486
5641 5637 5633 5629 5622 5616 5612 5608 5606 5599 5593 5593 5590 5588 5588 5585 5582 5578 5575 5570 5567 5565 5561 5557 5553 5544 5536 5531 5526 5517 5509 5502 5497 5491 5489 5487 5484 5482 5480 5478 5477 5476 5474
5640 5636 5631 5627 5621 5615 5609 5603 5598 5594 5590 5585 5585 5581 5582 5581 5578 5574 5569 5565 5561 5558 5553 5549 5546 5540 5529 5521 5517 5514 5503 5500 5488 5482 5477 5474 5472 5470 5467 5465 5464 5463 5462
5643 5637 5631 5627 5622 5615 5608 5603 5599 5596 5593 5589 5581 5579 5577 5575 5571 5571 5567 5560 5556 5552 5545 5541 5537 5532 5526 5517 5509 5503 5497 5491 5485 5477 5469 5463 5460 5458 5455 5454 5452 5450 5450
5645 5638 5631 5626 5620 5614 5609 5605 5598 5592 5589 5584 5580 5572 5571 5569 5567 5564 5561 5555 5550 5546 5539 5534 5530 5525 5517 5507 5499 5491 5484 5476 5470 5468 5463 5455 5451 5447 5444 5442 5441 5438 5437
5643 5636 5630 5625 5621 5614 5608 5603 5598 5592 5587 5580 5575 5569 5565 5564 5561 5557 5554 5551 5546 5539 5531 5526 5522 5515 5507 5500 5492 5487 5479 5471 5461 5455 5450 5442 5438 5437 5433 5430 5429 5428 5426